United States

Cheney, KS Weather Archive

Below you will find the last 24 hours of weather readings for Cheney KS

Cheney KS Today's Weather Data

Observed at: Cheney, KS

Hour Observerd Temp Pressure Visibility Humidity Dew Point Wind
20:00 Overcast 54°F (12.2°C) 101.59 kPa 10 miles 51% 36°F (2.2°C) 9 mph E 83.75°
19:00 Overcast 55°F (12.8°C) 101.59 kPa 10 miles 47% 35.1°F (1.7°C) 10 mph E 83.75°18 mph
18:00 Overcast 56°F (13.3°C) 101.59 kPa 10 miles 46% 35.1°F (1.7°C) 11 mph E 83.75°18 mph
17:00 Overcast 56°F (13.3°C) 101.59 kPa 10 miles 47% 36°F (2.2°C) 11 mph E 83.75°
16:00 Overcast 56°F (13.3°C) 101.59 kPa 10 miles 47% 36°F (2.2°C) 11 mph E 83.75°
15:00 Partly Cloudy 60°F (15.6°C) 101.59 kPa 10 miles 41% 36°F (2.2°C) 10 mph E 83.75°17 mph
14:00 Partly Cloudy 59°F (15°C) 101.59 kPa 10 miles 41% 35.1°F (1.7°C) 11 mph E 83.75°
13:00 Partly Cloudy 59°F (15°C) 101.59 kPa 10 miles 41% 35.1°F (1.7°C) 11 mph E 83.75°17 mph
12:00 A Few Clouds 56°F (13.3°C) 101.59 kPa 10 miles 46% 35.1°F (1.7°C) 13 mph NE 38.75°
11:00 A Few Clouds 51°F (10.6°C) 101.59 kPa 10 miles 52% 34°F (1.1°C) 10 mph NE 38.75°18 mph
10:00 A Few Clouds 51°F (10.6°C) 101.59 kPa 10 miles 52% 34°F (1.1°C) 10 mph NE 38.75°
09:00 A Few Clouds 43°F (6.1°C) 101.59 kPa 10 miles 65% 32°F (0°C) 12 mph NE 38.75°
08:00 A Few Clouds 43°F (6.1°C) 101.59 kPa 10 miles 65% 32°F (0°C) 12 mph NE 38.75°
07:00 A Few Clouds 40°F (4.4°C) 101.59 kPa 10 miles 73% 32°F (0°C) 13 mph NE 38.75°
06:00 A Few Clouds 40°F (4.4°C) 101.59 kPa 10 miles 73% 32°F (0°C) 13 mph NE 38.75°
05:00 Partly Cloudy 41°F (5°C) 101.59 kPa 10 miles 70% 32°F (0°C) 11 mph NE 38.75°
04:00 Partly Cloudy 42°F (5.6°C) 101.59 kPa 10 miles 71% 33.1°F (0.6°C) 11 mph NE 38.75°
03:00 Partly Cloudy 43°F (6.1°C) 101.59 kPa 10 miles 68% 33.1°F (0.6°C) 12 mph NE 38.75°19 mph
02:00 Fair 43°F (6.1°C) 101.59 kPa 10 miles 67% 32.9°F (0.5°C) 12 mph NE 38.75°19 mph
01:00 Partly Cloudy 46°F (7.8°C) 101.59 kPa 10 miles 63% 34°F (1.1°C) 12 mph NE 38.75°
00:00 Fair 47°F (8.3°C) 101.59 kPa 10 miles 61% 34°F (1.1°C) 16 mph NE 38.75°
23:00 Partly Cloudy 49°F (9.4°C) 101.59 kPa 10 miles 56% 34°F (1.1°C) 10 mph N 5°
22:00 Partly Cloudy 51°F (10.6°C) 101.59 kPa 10 miles 52% 34°F (1.1°C) 13 mph NE 38.75°
21:00 Partly Cloudy 53°F (11.7°C) 101.59 kPa 10 miles 51% 35.1°F (1.7°C) 15 mph N 5°


Home | Earthquakes | About Us | Contact Us | Privacy

Copyright Friendly Forecast 2012 - 2021